NOAA NWS Hourly Roundups by Site

Regional Weather Roundup for Omaha, NE

To Select Another Site Choose from List

Select Site:  

000
ASUS43 KOAX 250210
RWRNE

WEATHER ROUNDUP FOR NEBRASKA
NATIONAL WEATHER SERVICE OMAHA NE
900 PM CDT SAT AUG 24 2019

NOTES: SATELLITE DATA IS BEING USED TO AUGMENT CLOUD COVER ABOVE
       12000 FEET.
       "FAIR" INDICATES FEW OR NO CLOUDS BELOW 12,000 FEET WITH NO
       SIGNIFICANT WEATHER AND/OR OBSTRUCTIONS TO VISIBILITY.


NEZ001>004-019>022-054>056-250300-
NEBRASKA PANHANDLE

CITY           SKY/WX    TMP DP  RH WIND       PRES   REMARKS
SCOTTSBLUFF    FAIR      73  63  70 E9        29.92S
ALLIANCE       FAIR      67  62  84 SE13      29.93F
CHADRON        FAIR      74  60  61 S12       29.87F
GORDON         FAIR      70  61  71 S7        29.93S
KIMBALL        FAIR      69  57  67 S8        30.01S
SIDNEY         FAIR      67  58  72 SE7       29.98S
$$

NEZ057>060-069>072-079>082-250300-
SOUTHWEST NEBRASKA

CITY           SKY/WX    TMP DP  RH WIND       PRES   REMARKS
NORTH PLATTE   FAIR      67  63  87 SE7       29.96F
IMPERIAL       FAIR      69  63  81 SE9       29.96R
LEXINGTON      RAIN      70  68  94 SE10      29.98S
MCCOOK         MOCLDY    70  65  84 E7        29.95S
OGALLALA       FAIR      70  65  84 E3        29.96R
$$

NEZ005>010-023>029-035>040-094-250300-
NORTH CENTRAL NEBRASKA

CITY           SKY/WX    TMP DP  RH WIND       PRES   REMARKS
VALENTINE      FAIR      71  60  68 SE10      29.94S
AINSWORTH      FAIR      65  65 100 SE7       29.97S
BROKEN BOW     CLOUDY    68  67  96 SE9       29.98F
O`NEILL        CLOUDY    66  65  95 SE9       30.00S
ORD            CLOUDY    67  65  93 SE9G20    29.98S
THEDFORD       FAIR      69  65  86 SE8       29.98S
$$

NEZ041-046>049-061>064-073>077-083>087-250300-
SOUTH CENTRAL NEBRASKA

CITY           SKY/WX    TMP DP  RH WIND       PRES   REMARKS
GRAND ISLAND   CLOUDY    67  64  90 SE12      30.01S FOG
AURORA         CLOUDY    64  64 100 SE8       30.02R
HASTINGS       CLOUDY    68  64  87 E15G24    29.99F
HEBRON         CLOUDY    69  66  92 SE5       30.03R
HOLDREGE       CLOUDY    69  69  99 E12       29.97R
KEARNEY        CLOUDY    67  66  97 E13       29.99S
YORK           CLOUDY    66  64  94 S8        30.03R
$$

NEZ011>018-030>034-042>045-250300-
NORTHEAST NEBRASKA

CITY           SKY/WX    TMP DP  RH WIND       PRES   REMARKS
NORFOLK        CLOUDY    66  63  90 SE7       30.02S
ALBION         LGT RAIN  67  66  98 SE7       30.03R
BLAIR          CLOUDY    69  62  76 SE7       30.04S
COLUMBUS       CLOUDY    67  64  90 SE10      30.03S
FREMONT        CLOUDY    72  62  71 SE10      30.03S
TEKAMAH        CLOUDY    69  60  73 E9        30.03R
WAYNE          RAIN      65  62  90 SE5       30.04R
$$

NEZ050>053-065>068-078-088>093-250300-
SOUTHEAST NEBRASKA

CITY           SKY/WX    TMP DP  RH WIND       PRES   REMARKS
LINCOLN        CLOUDY    70  63  78 SE10      30.03R
OMAHA EPPLEY   CLOUDY    72  61  68 SE10      30.04R
BEATRICE       CLOUDY    70  65  84 E7        30.02R
FALLS CITY     CLOUDY    70  64  81 SE6       30.03R
NEBRASKA CITY  CLOUDY    70  63  78 SE8       30.05R
PLATTSMOUTH    CLOUDY    70  64  81 SE6       30.05R
$$

NEZ044-045-051>053-067-250300-
OMAHA AREA

CITY           SKY/WX    TMP DP  RH WIND       PRES   REMARKS
OMAHA EPPLEY   CLOUDY    72  61  68 SE10      30.04R
BLAIR          CLOUDY    69  62  76 SE7       30.04S
FREMONT        CLOUDY    72  62  71 SE10      30.03S
MILLARD        CLOUDY   N/A N/A N/A SE7       30.04R
OFFUTT AFB     MOCLDY    72  61  68 SE12      30.08R
PLATTSMOUTH    CLOUDY    70  64  81 SE6       30.05R
WAHOO          CLOUDY    69  63  82 SE8       30.04R
$$


 

View Past Reports for Omaha, NE.

Products Courtesy of NOAA-NWS
NWS Information Parsing Script by Ken True at Saratoga Weather - Script by SE Lincoln Weather.